GONETS M 10 (M20)

Satellite information

Favourite Embed

Satellite Type and Status

PAYLOADIN ORBIT

Key statistics

Satellite GONETS M 10 (M20) at a glance.

Uptime

4142

Days in orbit

Revolutions

≈ 12.4

Per day

Orbit

LEO

Low Earth Orbit

Inclination

82.5

Latest

Satellite identification and parameters

Extended collection of information and parameters for GONETS M 10 (M20).

Object identification

Identified? True

Debris? False

Object name: GONETS M 10 (M20)

International designator: 2014-036C

Object number (NORAD): 40063

Object ID (CCSDS): 40063

Country: COMMONWEALTH OF INDEPENDENT STATES (CIS)

Current information (Y/N): Y

RCS size: LARGE

Orbital parameters

Period: 115.855 minutes

Inclination: 82.5077 deg

SMA: 7872.311 km

Apoapsis: 1510.747 km

Periapsis: 1477.605 km

RAAN: 88.4383 deg

Eccentricy: 0.002105

Argument of periapsis: 275.9145 deg

Mean anomaly: 83.9535 deg

Mean motion: 12.42937757 rev/day

Mean motion (dot): 0.00000016 rev/day2

B* drag term: 0.000047155 1/REarth

Two-line elements (TLE)

Creation date: Nov. 2, 2025, 3:46 p.m.

Reference frame: TEME

Reference center: EARTH

Epoch: Nov. 2, 2025, 1:28 p.m. UTC

TLE line 0: 0 GONETS M 10 (M20)

TLE line 1: 1 40063U 14036C 25306.56156839 .00000016 00000-0 47155-4 0 9999

TLE line 2: 2 40063 82.5077 88.4383 0021050 275.9145 83.9535 12.42937757514098

Live tracking on map

Real-time ground track for satellite GONETS M 10 (M20).

In-orbit conjunctions

There are no conjunctions computed for GONETS M 10 (M20), at the moment. Check back to stay up to date, as we update our databases every day.

Go to all conjunctions

Associated space launch

Gonets-M are an upgraded version of Gonets satellites, derived from military communications system Strela-3. Gonets-M constellation is tasked with monitoring ecological and industrial objects, providing communication and data transmission services, covering also the remote areas like the Far North region.

GONETS M 10 (M20) was lifted into orbit during the mission ‘Rokot / Briz-KM | Gonets-M18, Gonets-M19, Gonets-M20’, on board a Rokot/Briz-KM space rocket.

The launch took place on July 3, 2014, 12:43 p.m. from 133/3 (133L).

For more information about the launch, click the button.

Launch to space Rokot / Briz-KM | Gonets-M18, Gonets-M19, Gonets-M20
Rokot / Briz-KM | Gonets-M18, Gonets-M19, Gonets-M20

Agency: N/A

Status: Launch Successful

Launch date: July 3, 2014, 12:43 p.m. UTC

Rocket: Rokot/Briz-KM

Launch pad: 133/3 (133L)

Location: Plesetsk Cosmodrome, Russian Federation

...

Latest news about this satellite

There are no fresh news available about this satellite. Check back as we update our databases every day.


Newsletter sign-up

Weekly statistics, charts and insights to help you stay on top of the space industry.